Zurück zum Katalog

STARLINK-38214

AktivKommunikationSSO
NORAD 100103·PAYLOAD·🇺🇸 United States

Gestartet Jul 21, 2026 von Vandenberg Space Force Base

Loading…

Nächste Überflüge (nächste 24 Stunden)

TLE

AktuellSource: Space-Track

Epoche: Sep 14, 2026, 07:11 UTC

1 A0103U 26166C   26257.29938385 -.00000380  00000-0 -16815-5 0  9993
2 A0103  97.2824 275.2844 0000892  98.3468 261.7898 15.75173075  8625

Verfolge STARLINK-38214 in Echtzeit mit AllMySat

Download on the App Store